Retour au catalogue

STARLINK-33985

ActifCommunicationsVLEO
NORAD 63943·PAYLOAD·🇺🇸 United States

Lancé May 13, 2025 depuis Vandenberg Space Force Base

Loading…

Prochains Passages (prochaines 24 heures)

TLE

FraisSource: CelesTrak SupGP

Époque: Sep 15, 2026, 02:19 UTC

1 63943C 25098T   26258.09701389  .00014577  00000+0  50722-3 0  2589
2 63943  70.0002 155.3006 0003189 273.6040  81.8032 15.29563559    12

Suivez STARLINK-33985 en temps réel avec AllMySat

Download on the App Store